Regional Weather Roundup
Issued by NWS Midland/Odessa, TX

Current Version | Previous Version | Text Only | Print | Product List | Glossary On
Versions: 1 2 3 4 5 6 7 8 9 10 11 12 13 14 15 16 17 18 19 20 21 22 23 24 25 26 27 28 29 30 31 32 33 34 35 36 37 38 39 40 41 42 43 44 45 46 47 48 49 50
000
ASUS44 KMAF 240410
RWRMAF
MIDLAND AREA WEATHER ROUNDUP
NATIONAL WEATHER SERVICE MIDLAND TX
1100 PM CDT FRI OCT 23 2020

...IN SOUTHWEST TEXAS AND SOUTHEAST NEW MEXICO...

CITY           SKY/WX    TMP DP  RH WIND       PRES   REMARKS
ALPINE         CLEAR     48  37  65 NE7       30.34R
ANDREWS        CLOUDY    48  32  52 E8        30.30S
ARTESIA        CLEAR     48  30  49 SE8       30.29R
BIG SPRING     CLOUDY    48  31  52 NE13      30.29S
CARLSBAD       CLEAR     49  32  52 SE5       30.26S
DRYDEN           N/A     55  37  50 NE13      30.25R
FORT STOCKTON  CLEAR     48  34  58 E6        30.28R
GUAD PASS      CLEAR     44  31  60 NE38      30.22F WCI  33
HOBBS          CLEAR     41  28  60 NE6       30.29S WCI  37
LAMESA         NOT AVBL
MARFA          CLEAR     47  36  65 NE14      30.27S
MIDLAND AIRPK    N/A     49  32  51 NE12      30.30R
MIDLAND INTL   CLOUDY    48  32  53 NE12      30.28S
ODESSA         CLEAR     47  31  53 E12       30.29R
PECOS          CLEAR     50  33  51 E7        30.28S
PRESIDIO       FAIR      65  40  39 N13G22    30.17S
SEMINOLE       CLEAR     46  32  58 E5        30.34R
SNYDER         CLOUDY    47  31  54 NE9       30.30S
WINK           CLEAR     46  32  58 NE5       30.27R
$$
...OTHER STATIONS IN TEXAS...

CITY           SKY/WX    TMP DP  RH WIND       PRES   REMARKS
ABILENE        CLOUDY    48  35  60 N14       30.29S
AMARILLO       CLEAR     36  24  62 N5        30.30S WCI  32
AUSTIN         CLOUDY    56  45  66 N20G31    30.19R
BROWNSVILLE    CLEAR     78  75  90 N3        29.99R
CORPUS CHRISTI CLOUDY    70  61  73 N24G33    30.05R
DALLAS FTW     MOCLDY    51  40  65 N16       30.23R
DEL RIO        CLOUDY    60  44  55 N13G23    30.19R
EL PASO        CLEAR     59  31  34 SE6       30.16R
HOUSTON INT    CLOUDY    60  53  77 N18       30.12R
LUBBOCK        PTCLDY    40  28  62 NE7       30.30R WCI  35
SAN ANGELO     CLOUDY    49  36  61 NE9       30.28R
SAN ANTONIO    PTCLDY    56  45  66 N14G24    30.16R
WACO           LGT RAIN  54  43  66 N13G24    30.22R
WICHITA FALLS  CLOUDY    38  27  64 N14       30.37R WCI  30
$$
...OTHER LOCATIONS IN NEW MEXICO...

CITY           SKY/WX    TMP DP  RH WIND       PRES   REMARKS
ALAMOGORDO     CLEAR     59  32  36 S9        30.15R
ALBUQUERQUE    CLEAR     53  25  33 NE20      30.16R
CANNON AFB     CLEAR     35  23  62 NE7       30.31R WCI  29
CLOVIS         CLEAR     33  24  69 NE9       30.31S WCI  25
HOLLOMAN AFB   CLEAR     58  30  34 S15       30.14R
ROSWELL        CLEAR     48  26  42 E3        30.26S
RUIDOSO        CLEAR     37  23  56 SE3       30.31R
SANTA FE       CLEAR     41  25  53 SE15      30.23R WCI  33
TRUTH OR CONSE CLEAR     67  34  29 SE7       30.11R
TUCUMCARI      CLEAR     36  23  59 E5        30.29R WCI  32
$$




USA.gov is the U.S. government's official web portal to all federal, state and local government web resources and services.